CAPE
365 484 372 529 368 167 438 755 666 467 637 805 737 811 789 799 792 768 843 746 788 596 473 679 776 793 809 766 464 774 243 288 290 218 333 250 474 549 382 27 0 0 0
321 431 402 396 438 334 372 560 727 446 389 419 398 779 725 771 828 717 880 1060 662 711 930 804 684 777 680 679 645 536 300 321 185 54 21 164 370 332 315 98 0 0 0
380 394 392 297 342 237 317 355 542 664 700 570 701 706 676 713 816 933 824 638 552 597 660 673 652 628 646 778 615 400 270 445 273 202 139 235 206 173 244 6 0 0 0
467 371 460 407 275 390 424 309 479 594 590 629 627 685 656 687 760 819 802 605 624 691 459 649 909 606 389 455 407 332 366 320 250 212 200 75 63 158 251 43 7 0 0
562 524 391 425 416 360 463 428 367 457 625 773 749 847 994 888 802 883 722 682 670 696 663 718 718 501 353 369 342 258 300 272 240 171 77 67 87 68 21 147 144 3 0
679 614 581 704 651 573 515 659 773 742 831 925 747 633 684 827 639 429 356 357 469 447 392 375 490 366 367 240 193 191 154 142 83 35 19 73 94 131 79 56 97 85 32
497 646 852 786 828 756 600 679 889 755 672 816 778 811 818 575 237 103 191 162 433 476 421 467 295 112 99 162 119 187 69 62 75 66 53 49 57 23 0 24 77 65 20
148 241 660 897 838 789 588 679 645 645 625 742 759 836 488 65 5 9 62 74 60 187 242 216 120 28 0 8 25 121 102 12 0 0 0 0 0 0 0 0 0 4 0
3 37 136 679 718 856 751 651 585 609 527 481 275 145 52 0 0 0 2 39 20 0 0 0 0 0 0 0 0 3 0 0 0 0 0 0 0 0 0 0 0 1 15
0 3 78 384 742 569 629 522 472 345 114 51 15 0 1 0 0 0 0 15 0 0 0 0 0 0 0 0 0 0 3 0 0 0 0 0 0 0 0 0 0 0 0
9 33 7 0 284 484 359 240 112 61 17 0 0 0 0 0 0 0 0 0 0 0 0 0 0 0 0 0 0 0 0 2 0 0 0 0 0 0 0 0 0 0 0
47 43 0 0 26 41 95 14 0 0 0 0 0 1 2 1 0 0 0 0 0 0 0 0 0 0 0 0 0 0 0 0 0 0 0 0 0 0 0 0 0 0 0
39 6 0 0 20 6 0 0 0 0 0 0 0 1 1 1 0 0 0 0 0 0 0 0 0 0 0 0 0 0 0 0 0 0 0 0 0 0 0 0 0 0 0
20 0 0 0 0 0 2 2 0 1 0 1 1 1 2 0 0 0 0 0 0 0 0 0 0 0 0 0 0 0 0 0 0 0 0 0 0 0 0 0 0 0 0
0 0 0 0 0 0 0 0 0 0 0 0 0 0 0 0 0 0 0 0 0 0 0 0 0 0 0 0 0 0 0 0 0 0 0 0 0 0 0 0 0 0 0
0 1 0 0 0 0 0 0 0 0 0 0 0 0 0 0 0 0 0 0 0 0 0 0 0 0 0 0 0 0 0 0 0 0 0 0 0 0 0 0 0 0 0
0 0 0 0 0 0 0 0 0 0 0 0 0 0 0 0 0 0 0 0 0 0 0 0 0 0 0 0 0 0 0 0 0 0 0 0 0 0 0 0 0 0 0
0 0 0 0 0 0 0 0 0 0 0 0 0 0 0 0 0 0 0 0 0 0 0 0 0 0 0 0 0 0 0 0 0 0 0 0 0 0 0 0 0 0 0
0 0 0 0 0 0 0 0 0 0 0 0 0 0 0 0 0 0 0 0 0 0 0 0 0 0 0 0 0 0 0 0 0 0 0 0 0 0 0 0 0 0 0
0 0 0 0 0 0 0 0 0 0 0 0 0 0 0 0 0 0 0 0 0 0 0 0 0 0 0 0 0 0 0 0 0 0 0 0 0 0 0 0 0 0 0
0 0 0 0 0 0 0 0 0 0 0 0 0 0 0 0 0 0 0 0 0 0 0 0 0 0 0 0 0 0 0 0 0 0 0 0 0 0 0 0 0 0 0
0 0 0 0 0 0 0 0 0 0 0 0 0 0 0 0 0 0 0 0 0 0 0 0 0 0 0 0 0 0 0 0 0 0 0 0 0 0 0 0 0 0 0
0 0 0 0 0 0 0 0 0 0 0 0 0 0 0 0 0 0 0 0 0 0 0 0 0 0 0 0 0 0 0 0 0 0 0 0 0 0 0 0 0 0 0
0 0 0 0 0 0 0 0 0 0 0 0 0 0 0 0 0 0 0 0 0 0 0 2 11 6 6 0 0 0 0 0 0 0 0 0 0 0 0 0 0 0 0
0 0 0 0 0 0 0 0 0 0 0 0 0 0 0 0 0 0 0 0 0 0 0 10 4 0 0 0 0 0 0 0 0 0 0 0 0 0 0 0 0 0 0
0 0 0 0 0 0 0 0 0 0 0 0 0 0 0 0 0 0 0 0 0 0 0 0 0 7 0 0 0 0 0 0 0 0 0 0 0 0 0 0 0 0 0
CIN
-79 -86 -84 -58 -65 -91 -63 -34 -33 -53 -41 -47 -34 -29 -35 -19 -19 -23 -19 -22 -19 -30 -31 -27 -20 -23 -18 -24 -36 -35 -45 -41 -28 -44 -53 -58 -33 -44 -72 -105 0 0 0
-90 -84 -88 -86 -61 -58 -60 -50 -31 -46 -48 -44 -58 -36 -27 -15 -24 -25 -20 -18 -26 -27 -22 -21 -23 -23 -15 -18 -25 -30 -41 -43 -38 -37 -75 -54 -38 -66 -79 -132 0 0 0
-97 -75 -75 -87 -74 -86 -62 -54 -44 -33 -25 -33 -28 -21 -15 -21 -20 -19 -17 -18 -24 -28 -21 -18 -24 -24 -18 -27 -30 -32 -42 -31 -47 -52 -55 -62 -56 -91 -91 -78 0 0 0
-102 -69 -60 -64 -94 -63 -61 -64 -45 -33 -24 -27 -31 -27 -28 -26 -25 -23 -23 -27 -25 -23 -29 -18 -15 -20 -33 -27 -34 -36 -41 -37 -45 -48 -50 -57 -66 -65 -71 -127 -85 0 0
-86 -68 -87 -78 -59 -67 -41 -48 -48 -37 -29 -21 -18 -22 -17 -22 -28 -32 -42 -37 -28 -27 -25 -21 -28 -35 -46 -51 -42 -47 -48 -49 -49 -56 -70 -70 -57 -52 -68 -52 -56 -130 0
-68 -71 -75 -56 -48 -39 -38 -22 -21 -17 -19 -14 -17 -21 -25 -24 -43 -68 -73 -49 -37 -34 -31 -31 -35 -36 -54 -70 -72 -64 -68 -65 -76 -105 -99 -70 -68 -69 -72 -70 -51 -33 -38
-56 -64 -56 -48 -41 -33 -30 -24 -15 -16 -19 -15 -17 -20 -19 -44 -105 -160 -105 -85 -42 -29 -32 -35 -46 -111 -112 -80 -81 -66 -104 -95 -82 -74 -75 -93 -92 -93 0 -82 -48 -31 -37
-124 -117 -76 -37 -37 -32 -29 -24 -22 -19 -21 -20 -19 -19 -54 -223 -123 -97 -156 -117 -120 -90 -77 -74 -83 -125 0 -67 -94 -47 -49 -46 0 0 0 0 0 0 0 0 -116 -154 0
-30 -154 -166 -67 -22 -26 -24 -27 -31 -25 -39 -53 -118 -151 -217 0 0 0 -185 -122 -161 -11 0 0 0 0 0 0 0 -15 0 0 0 0 0 0 0 0 0 0 0 -27 -59
0 -186 -200 -78 -32 -26 -36 -47 -69 -102 -169 -237 -273 0 0 0 0 0 0 -134 0 0 0 0 0 0 0 0 0 0 -80 0 0 0 0 0 0 0 0 0 0 0 0
-132 -131 -142 0 -25 -38 -79 -140 -186 -221 -285 0 0 0 0 0 0 0 0 -23 0 0 0 0 0 0 0 0 0 0 0 -74 0 0 0 0 0 0 0 0 0 0 0
-127 -146 0 0 -24 -109 -211 -246 0 0 0 0 0 0 0 0 0 0 0 0 0 0 0 0 0 0 0 0 0 0 0 0 0 0 0 0 0 0 0 0 0 0 0
-211 -156 0 0 -92 -153 0 0 0 0 0 0 0 0 0 0 0 0 0 0 0 0 0 0 0 0 0 0 0 0 0 0 0 0 0 0 0 0 0 0 0 0 0
-168 0 0 0 0 0 0 0 0 0 0 0 0 0 0 0 0 0 0 0 0 0 0 0 0 0 0 0 0 0 0 0 0 0 0 0 0 0 0 0 0 0 0
0 0 0 0 0 0 0 0 0 0 0 0 0 0 0 0 0 0 0 0 0 0 0 0 0 0 0 0 0 0 0 0 0 0 0 0 0 0 0 0 0 0 0
0 -55 -24 0 0 0 0 0 0 0 0 0 0 0 0 0 0 0 0 0 0 0 0 0 0 0 0 0 0 0 0 0 0 0 0 0 0 0 0 0 0 0 0
0 0 0 0 0 0 0 0 0 0 0 0 0 0 0 0 0 0 0 0 0 0 0 0 0 0 0 0 0 0 0 0 0 0 0 0 0 0 0 0 0 0 0
0 0 0 0 0 0 0 0 0 0 0 0 0 0 0 0 0 0 0 0 0 0 0 0 0 0 0 0 0 0 0 0 0 0 0 0 0 0 0 0 0 0 0
0 0 0 0 0 0 0 0 0 0 0 0 0 0 0 0 0 0 0 0 0 0 0 0 0 0 0 0 0 0 0 0 0 0 0 0 0 0 0 0 0 0 0
0 0 0 0 0 0 0 0 0 0 0 0 0 0 0 0 0 0 0 0 0 0 0 0 0 0 0 0 0 0 0 0 0 0 0 0 0 0 0 0 0 0 0
0 0 0 0 0 0 0 0 0 0 0 0 0 0 0 0 0 0 0 0 0 0 0 0 0 0 0 0 0 0 0 0 0 0 0 0 0 0 0 0 0 0 0
0 0 0 0 0 0 0 0 0 0 0 0 0 0 0 0 0 0 0 0 0 0 0 0 0 0 0 0 0 0 0 0 0 0 0 0 0 0 0 0 0 0 0
0 0 0 0 0 0 0 0 0 0 0 0 0 0 0 0 0 0 0 0 0 0 0 0 0 0 0 0 0 0 0 0 0 0 0 0 0 0 0 0 0 0 0
0 0 0 0 0 0 0 0 0 0 0 0 0 0 0 0 0 0 0 0 0 0 0 -109 -81 -89 -105 0 0 0 0 0 0 0 0 0 0 0 0 0 0 0 0
0 0 0 0 0 0 0 0 0 0 0 0 0 0 0 0 0 0 0 0 0 0 0 -77 -82 0 0 0 0 0 0 0 0 0 0 0 0 0 0 0 0 0 0
0 0 0 0 0 0 0 0 0 0 0 0 0 0 0 0 0 0 0 0 0 0 0 0 0 -72 0 0 0 0 0 0 0 0 0 0 0 0 0 0 0 0 0
Wind_Speed
24 13 14 21 17 13 18 19 16 4 3 6 11 17 8 7 10 11 7 12 19 24 16 18 22 20 23 23 17 16 18 18 20 16 16 19 19 12 13 14 15 16 16
19 10 12 14 14 10 19 4 5 4 1 10 7 6 3 4 16 18 7 12 22 20 21 23 21 24 9 7 7 12 15 16 16 13 16 18 19 17 11 11 14 14 15
12 11 12 13 14 14 16 12 5 4 3 4 5 8 9 4 2 3 8 11 9 9 4 11 16 15 14 9 10 14 16 16 16 15 16 17 17 17 15 13 14 14 15
10 11 10 11 12 12 12 14 9 7 5 7 9 9 6 4 3 3 5 5 6 7 3 6 8 11 14 14 13 12 13 13 16 16 16 17 18 18 15 12 13 14 11
11 11 11 11 13 9 8 8 8 8 5 4 3 3 1 3 7 5 6 7 5 4 2 11 10 12 13 15 16 14 13 14 16 16 17 17 17 18 17 15 14 13 11
15 14 11 11 11 10 9 8 8 9 9 8 6 5 5 11 9 7 11 11 3 4 3 12 13 12 16 18 17 16 15 14 16 17 18 20 20 18 18 19 18 17 18
20 21 14 12 11 11 11 10 10 8 9 8 6 6 11 15 12 10 11 12 12 11 13 14 13 16 17 17 18 17 17 17 18 18 18 18 19 19 20 21 18 18 20
22 25 26 17 13 13 15 13 12 13 13 9 8 8 8 10 12 13 11 11 12 13 13 14 14 15 17 18 18 18 16 17 18 17 17 17 19 21 20 21 22 20 18
25 27 28 32 25 17 17 16 19 16 16 16 15 13 11 14 16 15 13 10 11 13 15 16 16 17 20 20 18 17 16 18 18 16 17 19 20 22 23 20 21 19 21
32 25 35 38 29 24 19 16 16 14 13 14 14 14 15 17 19 16 13 12 11 12 15 17 18 19 20 21 21 22 20 18 16 16 19 20 20 21 22 20 20 20 20
22 22 28 33 36 30 22 17 14 12 10 11 12 14 14 17 17 16 15 12 10 12 14 16 17 19 20 20 19 19 19 16 14 13 15 16 17 19 21 22 22 21 20
21 21 26 32 31 19 18 14 10 9 9 9 10 11 13 15 16 17 16 14 13 13 13 13 14 16 17 17 17 17 17 15 13 13 14 15 17 19 20 21 22 22 21
11 13 12 15 2 14 14 13 9 12 8 7 8 9 10 12 13 14 14 12 11 11 11 12 14 15 15 17 17 17 17 16 16 16 17 19 19 20 20 20 19 19 19
10 12 11 7 6 10 13 12 7 8 5 4 5 7 8 9 11 12 13 13 13 12 12 13 14 15 16 17 18 19 18 17 17 17 17 17 18 19 20 19 19 18 19
8 12 14 16 8 5 6 9 7 10 9 7 6 5 7 9 10 12 13 13 13 13 14 15 15 16 17 18 18 18 19 19 18 18 18 18 19 19 20 20 20 21 20
6 9 9 11 9 7 6 5 7 8 8 8 7 7 10 11 12 12 13 13 13 14 15 16 17 17 17 17 18 18 18 19 20 20 20 20 21 21 22 22 21 21 20
8 8 10 7 11 8 11 7 6 9 10 10 10 11 11 11 12 13 13 14 14 14 16 14 16 18 18 17 18 18 19 20 20 21 21 22 23 24 24 24 22 22 21
8 6 8 9 15 14 14 14 11 11 10 11 12 12 12 12 13 14 15 15 15 15 15 16 17 17 18 18 19 19 19 21 21 22 22 23 24 24 23 24 23 23 22
11 11 13 14 16 16 15 14 12 12 11 10 10 11 12 12 13 15 16 16 15 16 17 17 16 17 18 18 19 20 21 22 22 23 23 24 24 24 24 24 24 24 24
15 16 14 12 11 12 12 12 11 11 10 10 10 10 11 13 13 15 16 16 16 16 19 18 16 17 18 18 19 21 22 22 22 22 24 25 25 24 25 24 24 24 24
14 11 10 9 10 9 8 8 9 10 10 9 9 10 9 12 14 16 17 15 16 18 17 16 16 16 17 18 19 20 22 22 21 22 23 25 25 25 23 23 23 23 23
9 8 7 8 9 10 11 10 10 10 10 10 10 11 9 12 17 19 19 17 13 12 13 13 14 15 17 19 20 21 22 23 22 20 20 22 22 23 22 23 23 23 23
8 8 8 9 11 12 12 13 14 15 15 15 14 13 12 14 17 21 21 19 19 14 11 11 13 14 16 18 18 19 21 23 23 18 18 20 22 22 22 22 22 22 20
11 10 11 10 11 13 13 15 15 15 16 16 17 18 18 19 20 16 19 22 19 15 11 10 13 14 17 19 18 18 20 20 18 17 17 19 21 19 20 21 19 17 16
13 11 7 9 10 11 13 14 15 16 16 17 18 19 20 21 22 22 22 25 23 16 12 11 12 12 13 16 16 18 18 16 16 16 17 19 19 18 20 19 16 16 16
11 11 10 10 10 11 12 13 15 17 18 19 20 21 22 22 24 25 26 26 22 18 14 13 13 12 12 13 14 14 16 16 16 17 16 17 18 17 17 15 15 15 17
Wind_Direction
170 163 165 167 164 162 178 256 153 111 359 92 126 147 115 105 127 147 358 328 301 274 224 314 294 294 265 264 339 354 349 353 341 6 11 4 2 33 30 33 32 26 29
173 183 175 173 171 181 172 191 152 152 153 141 139 126 82 105 289 178 136 330 223 209 286 286 222 284 175 153 58 18 6 5 2 1 9 5 0 10 40 32 22 18 19
187 193 183 182 180 180 180 177 205 195 180 152 138 146 150 122 90 104 153 172 156 152 106 341 322 336 351 16 11 357 355 359 2 360 354 355 357 357 3 4 3 4 2
226 229 220 200 191 188 187 184 192 193 186 170 168 168 165 152 144 138 147 149 150 155 46 1 356 350 343 350 354 359 1 2 355 356 354 349 348 349 355 359 356 356 4
224 220 207 226 248 232 217 217 201 198 231 211 214 192 195 312 318 331 335 331 340 161 25 338 336 335 340 340 340 347 348 344 345 347 347 344 341 339 340 344 341 344 349
242 244 236 229 227 216 216 224 240 260 269 273 273 280 290 301 308 315 318 323 332 163 7 337 332 336 330 329 332 336 338 339 338 339 339 337 331 330 332 330 328 330 331
249 257 248 239 230 217 223 240 252 239 265 268 266 283 293 294 303 310 319 320 323 325 325 330 334 331 332 333 329 331 332 331 330 335 334 336 334 332 331 327 329 330 323
253 257 259 254 242 240 252 246 251 264 269 269 273 282 292 300 303 306 311 315 320 323 326 329 332 332 332 331 331 331 333 333 332 338 339 341 336 330 328 325 323 325 331
261 263 263 256 258 246 248 254 262 265 269 273 281 292 300 304 307 310 312 314 316 318 322 326 331 330 328 327 329 329 329 329 332 341 339 337 336 331 327 327 325 325 322
261 279 267 262 259 253 246 247 256 258 267 280 291 302 304 304 307 311 314 314 315 315 319 324 324 326 328 327 324 320 320 323 324 331 329 328 337 339 345 346 339 332 329
273 278 268 272 269 251 249 248 249 258 270 286 299 306 313 312 313 315 318 321 318 319 321 326 330 330 332 334 337 332 332 339 340 345 346 344 344 343 342 343 345 342 336
279 291 288 278 262 227 240 249 253 252 268 283 300 311 319 324 324 324 323 319 319 325 333 338 340 345 348 353 353 352 356 4 5 1 354 352 350 347 345 344 345 348 349
311 331 335 255 224 251 256 256 266 260 262 284 306 317 327 340 350 354 354 353 357 353 1 340 347 350 2 3 0 357 356 356 352 349 346 341 341 343 343 346 350 352 353
23 19 9 343 339 298 272 280 255 279 307 324 345 350 347 357 4 8 12 7 5 5 1 357 2 5 1 355 351 352 352 354 354 354 353 354 351 350 349 349 349 350 348
35 27 22 29 28 337 305 281 299 300 301 319 331 354 3 353 357 4 12 11 6 6 0 356 356 354 353 352 351 353 355 355 355 355 355 353 351 349 348 348 346 344 340
27 36 44 50 47 47 33 342 335 302 314 304 309 336 347 27 32 22 15 11 14 6 357 356 356 0 354 356 354 355 353 352 351 350 347 346 344 344 342 342 343 342 342
62 59 66 44 63 48 61 37 8 329 347 350 8 15 14 30 26 18 14 11 6 3 359 0 357 353 354 354 354 350 347 346 345 343 343 342 339 338 338 338 338 338 337
48 33 44 48 78 70 72 75 61 58 23 0 4 20 19 13 10 9 3 359 358 355 357 355 354 355 354 351 348 347 346 345 344 343 343 341 340 339 337 336 335 335 335
65 68 72 76 80 78 71 64 51 43 33 23 13 358 1 3 357 351 348 352 349 346 348 350 352 351 352 353 350 347 344 340 340 340 339 338 337 337 336 335 334 334 332
87 93 88 77 67 68 63 54 46 37 28 18 17 16 10 360 357 355 348 347 350 350 345 348 349 349 348 348 346 344 340 340 340 339 338 337 337 335 332 331 331 331 331
80 70 62 33 44 51 59 45 36 27 26 26 17 3 8 357 351 348 347 345 345 344 352 358 357 356 356 351 347 343 340 338 337 337 338 339 339 337 337 336 335 336 335
44 47 38 33 21 18 29 26 20 15 8 2 354 345 351 344 340 340 344 346 343 348 352 358 358 356 352 349 346 342 339 338 336 334 336 338 340 339 339 340 341 340 340
19 49 44 40 32 24 7 348 341 338 341 342 348 350 346 338 333 329 331 333 334 330 331 338 345 347 352 352 349 347 342 339 337 338 338 338 339 339 340 338 339 341 343
346 91 87 55 24 14 14 12 9 7 1 354 351 346 346 343 340 345 343 341 343 334 324 323 336 339 345 349 347 348 347 349 351 349 348 345 344 345 345 343 345 351 354
1 16 50 26 31 28 18 11 8 4 359 354 352 351 347 343 341 340 335 334 337 342 335 328 331 336 341 346 346 349 351 353 354 353 353 350 350 351 349 352 359 359 357
33 38 43 36 27 19 15 7 359 353 349 344 341 340 339 340 339 339 338 337 337 339 336 332 329 330 335 344 352 358 359 356 355 354 355 356 355 355 357 2 4 5 2